PBO Station Position Time Series. Reference Frame : NAM14
Format Version,1.1.0
4-character ID,PLPX
Station name,Las_PintasMX2010
Begin Date, 2010-10-28
End Date, 2019-10-07
Release Date, 2019-10-08
Reference position, 31.5886013819 North Latitude, -115.1512764014 East Longitude, 813.49066 meters elevation,
Date, North (mm), East (mm), Vertical (mm), North Std. Deviation (mm), East Std. Deviation (mm),              Vertical Std. Deviation (mm), Quality,
2010-10-28,0.00, 0.00, 0.00, 1.83, 1.63, 7.15, repro,
2010-10-29,0.70, 1.16, 2.18, 1.79, 1.61, 7.09, repro,
2010-10-30,-0.77, 0.83, 1.83, 1.79, 1.61, 7.11, repro,
2010-10-31,0.43, 0.28, 2.78, 1.86, 1.72, 7.43, repro,
2010-11-01,-0.81, 0.85, -4.21, 1.89, 1.75, 7.47, repro,
2010-11-02,1.05, 1.11, -5.38, 1.86, 1.67, 7.27, repro,
2010-11-03,1.05, 1.38, -0.74, 1.82, 1.64, 7.18, repro,
2010-11-04,0.13, 1.14, -1.18, 1.80, 1.60, 7.11, repro,
2010-11-05,0.40, 0.33, 3.13, 1.88, 1.68, 7.36, repro,
2010-11-06,-0.66, -0.23, 5.36, 1.83, 1.64, 7.23, repro,
2010-11-07,-0.42, -0.58, 4.20, 1.86, 1.67, 7.28, repro,
2010-11-08,1.29, 1.75, 11.87, 1.84, 1.66, 7.27, repro,
2010-11-09,0.64, 0.10, 5.22, 1.83, 1.63, 7.19, repro,
2010-11-10,-0.10, -0.42, 5.53, 1.83, 1.64, 7.21, repro,
2010-11-11,-0.08, 0.28, 0.84, 1.84, 1.63, 7.22, repro,
2010-11-12,0.49, 1.28, -1.91, 1.85, 1.67, 7.28, repro,
2010-11-13,0.59, 0.23, -5.36, 1.98, 1.87, 8.02, repro,
2010-11-14,-0.26, 1.39, 4.37, 1.91, 1.69, 7.69, repro,
2010-11-15,1.34, 1.46, 3.23, 1.81, 1.63, 7.30, repro,
2010-11-16,0.31, 1.39, 2.92, 1.90, 1.67, 7.58, repro,
2010-11-17,0.34, 1.80, 4.56, 2.08, 1.80, 8.17, repro,
2010-11-18,-0.02, 1.50, 1.62, 1.85, 1.64, 7.43, repro,
2010-11-19,-1.05, 1.36, 4.08, 1.90, 1.66, 7.52, repro,
2010-11-20,-0.76, -0.75, 3.45, 1.82, 1.64, 7.30, repro,
2010-11-21,1.81, 0.20, 8.44, 1.90, 1.70, 7.44, repro,
2010-11-22,0.46, -0.72, 4.89, 1.90, 1.71, 7.48, repro,
2010-11-23,-0.13, -0.04, 6.87, 1.86, 1.64, 7.47, repro,
2010-11-24,-1.55, -2.56, 4.64, 1.89, 1.65, 7.53, repro,
2010-11-25,0.19, 0.52, 4.42, 1.83, 1.64, 7.29, repro,
2010-11-26,1.20, 0.95, 2.89, 1.95, 1.66, 7.78, repro,
2010-11-27,-0.12, 0.98, 0.68, 1.87, 1.63, 7.49, repro,
2010-11-28,-0.99, 0.71, 6.72, 1.94, 1.66, 7.73, repro,
2010-11-29,-1.10, 1.09, -2.32, 1.86, 1.63, 7.47, repro,
2010-11-30,0.79, 0.79, -3.72, 1.90, 1.65, 7.56, repro,
2010-12-01,0.01, 0.99, 0.07, 1.88, 1.64, 7.53, repro,
2010-12-02,-0.71, 1.57, -5.37, 1.87, 1.64, 7.51, repro,
2010-12-03,0.07, 1.40, -0.89, 1.87, 1.64, 7.52, repro,
2010-12-04,-0.18, 0.17, -1.36, 1.87, 1.64, 7.53, repro,
2010-12-05,-0.73, 0.44, 4.16, 1.94, 1.66, 7.74, repro,
2010-12-06,-0.44, 1.09, -1.86, 1.88, 1.64, 7.45, repro,
2010-12-07,1.26, 0.04, -0.47, 1.86, 1.68, 7.50, repro,
2010-12-08,-0.16, 0.52, -0.73, 1.86, 1.61, 7.38, repro,
2010-12-09,1.01, 0.42, -2.04, 1.83, 1.61, 7.24, repro,
2010-12-10,-0.42, 0.16, 3.88, 1.89, 1.66, 7.58, repro,
2010-12-11,0.20, 0.54, 5.07, 1.83, 1.60, 7.18, repro,
2010-12-12,1.58, -0.32, -0.29, 1.86, 1.57, 7.24, repro,
2010-12-13,-0.04, -0.22, 1.15, 1.95, 1.62, 7.56, repro,
2010-12-14,0.85, 0.40, 6.34, 1.98, 1.73, 7.74, repro,
2010-12-15,0.03, 0.21, 8.47, 1.91, 1.64, 7.44, repro,
2010-12-16,0.62, 1.21, 6.85, 1.83, 1.60, 7.25, repro,
2010-12-17,-0.54, -0.33, -2.58, 1.86, 1.59, 7.20, repro,
2010-12-18,0.04, 0.52, 2.98, 1.84, 1.62, 7.23, repro,
2010-12-19,0.54, -0.42, 0.68, 1.82, 1.61, 7.21, repro,
2010-12-20,-0.30, -1.60, -5.76, 1.83, 1.61, 7.23, repro,
2010-12-21,2.25, 0.72, -3.80, 1.92, 1.64, 7.50, repro,
2010-12-22,-1.15, -0.40, 1.50, 1.91, 1.64, 7.51, repro,
2010-12-23,0.59, 0.83, 6.06, 1.93, 1.69, 7.53, repro,
2010-12-24,0.50, -0.55, -0.78, 1.83, 1.60, 7.23, repro,
2010-12-25,-0.66, -0.10, 1.53, 1.82, 1.57, 7.12, repro,
2010-12-26,0.02, -0.64, 2.53, 1.81, 1.58, 7.15, repro,
2010-12-27,-1.08, 2.13, -4.41, 1.84, 1.61, 7.30, repro,
2010-12-28,0.17, 1.24, -0.73, 1.86, 1.64, 7.32, repro,
2010-12-29,-0.10, -0.48, 5.11, 1.96, 1.77, 7.73, repro,
2010-12-30,-0.92, 0.73, 5.79, 1.87, 1.65, 7.40, repro,
2010-12-31,0.31, 0.71, 4.65, 1.84, 1.62, 7.29, repro,
2011-01-01,-0.27, 0.56, 2.76, 1.85, 1.61, 7.30, repro,
2011-01-02,-1.18, 1.39, 0.22, 2.15, 1.77, 8.53, repro,
2011-01-03,0.21, 0.06, 0.25, 1.86, 1.66, 7.38, repro,
2011-01-04,0.22, 0.31, 2.24, 1.89, 1.63, 7.36, repro,
2011-01-05,-0.07, 0.20, -2.18, 1.87, 1.67, 7.47, repro,
2011-01-06,0.58, -0.22, -0.32, 1.91, 1.71, 7.57, repro,
2011-01-07,1.03, -0.62, 5.01, 1.87, 1.65, 7.45, repro,
2011-01-08,0.61, 0.73, 5.79, 1.89, 1.65, 7.37, repro,
2011-01-09,0.33, 0.37, 4.69, 1.81, 1.57, 7.09, repro,
2011-01-10,-0.16, 0.03, 2.80, 1.86, 1.67, 7.40, repro,
2011-01-11,0.91, -0.14, 1.26, 1.93, 1.74, 7.67, repro,
2011-01-12,0.27, 0.88, -2.20, 1.84, 1.59, 7.17, repro,
2011-01-13,1.28, 0.44, -0.05, 1.90, 1.65, 7.38, repro,
2011-01-14,1.47, 0.36, -0.23, 1.84, 1.62, 7.24, repro,
2011-01-15,-0.00, 0.96, -4.98, 1.84, 1.62, 7.26, repro,
2011-01-16,0.77, -0.66, 1.89, 1.85, 1.63, 7.31, repro,
2011-01-17,2.49, 0.14, 7.40, 1.83, 1.58, 7.17, repro,
2011-01-18,-0.48, 0.98, 6.01, 1.86, 1.62, 7.33, repro,
2011-01-19,-0.08, 1.12, 6.57, 1.87, 1.67, 7.43, repro,
2011-01-20,0.77, 0.12, 1.57, 1.84, 1.63, 7.31, repro,
2011-01-21,1.54, -1.31, 3.56, 1.86, 1.68, 7.47, repro,
2011-01-22,0.77, -0.48, 8.73, 1.86, 1.66, 7.48, repro,
2011-01-23,0.59, -0.24, 4.57, 1.89, 1.70, 7.65, repro,
2011-01-24,0.89, 0.18, 2.06, 1.87, 1.71, 7.67, repro,
2011-01-25,0.98, -0.43, 3.07, 1.88, 1.70, 7.67, repro,
2011-01-26,1.22, 0.66, -1.62, 2.02, 1.79, 8.21, repro,
2011-01-27,1.73, 0.66, -1.30, 1.99, 1.90, 8.18, repro,
2011-01-28,0.64, 0.11, -2.01, 1.85, 1.60, 7.32, repro,
2011-01-29,0.62, -0.45, 1.24, 1.83, 1.60, 7.29, repro,
2011-01-30,0.98, -0.29, 1.37, 1.81, 1.57, 7.16, repro,
2011-01-31,-0.12, -0.55, -16.13, 1.89, 1.74, 7.76, repro,
2011-02-01,1.35, -0.55, -1.01, 1.85, 1.64, 7.40, repro,
2011-02-02,0.61, -0.33, -5.49, 1.87, 1.65, 7.47, repro,
2011-02-03,2.60, 0.04, -8.62, 1.87, 1.64, 7.42, repro,
2011-02-04,1.47, -0.99, -3.60, 1.94, 1.74, 7.74, repro,
2011-02-05,1.66, -0.80, 3.88, 1.85, 1.64, 7.46, repro,
2011-02-06,1.04, -0.84, -0.52, 2.04, 1.90, 8.26, repro,
2011-02-07,0.93, -0.78, -0.85, 1.91, 1.77, 7.88, repro,
2011-02-08,0.32, -0.34, 4.84, 1.88, 1.65, 7.56, repro,
2011-02-09,2.37, -0.57, 1.70, 1.88, 1.64, 7.44, repro,
2011-02-10,1.68, -0.28, 2.04, 1.86, 1.65, 7.44, repro,
2011-02-11,1.67, -0.78, 7.34, 1.97, 1.86, 8.23, repro,
2011-02-12,1.88, -0.05, 1.76, 1.90, 1.77, 7.87, repro,
2011-02-13,2.32, -0.75, 2.76, 1.86, 1.67, 7.58, repro,
2011-02-14,2.01, -1.08, 6.25, 1.84, 1.61, 7.36, repro,
2011-02-15,1.41, -0.92, 3.16, 1.93, 1.77, 7.88, repro,
2011-02-16,3.40, -4.14, 10.04, 1.96, 1.82, 8.04, repro,
2011-02-17,0.08, -1.51, 2.56, 1.82, 1.60, 7.27, repro,
2011-02-18,1.27, 0.48, 8.41, 1.88, 1.71, 7.73, repro,
2011-02-19,2.02, 0.75, -3.73, 1.86, 1.61, 7.40, repro,
2011-02-20,-1.92, -4.96, 10.55, 1.85, 1.64, 7.33, repro,
2011-02-21,2.23, -0.59, 4.09, 1.82, 1.58, 7.22, repro,
2011-02-22,0.79, -0.34, 4.15, 1.83, 1.59, 7.27, repro,
2011-02-23,0.93, 0.19, 7.02, 1.87, 1.63, 7.34, repro,
2011-02-24,1.60, -0.57, 3.44, 1.82, 1.57, 7.16, repro,
2011-02-25,0.72, -0.25, 4.67, 1.83, 1.57, 7.20, repro,
2011-02-26,2.19, 0.25, 7.94, 1.82, 1.57, 7.18, repro,
2011-02-27,-0.08, 0.68, 8.12, 1.82, 1.56, 7.17, repro,
2011-02-28,1.39, -0.67, 1.77, 1.82, 1.56, 7.17, repro,
2011-03-01,1.46, -1.88, 0.37, 1.85, 1.60, 7.22, repro,
2011-03-02,2.15, -1.57, -0.36, 1.82, 1.56, 7.17, repro,
2011-03-03,1.50, -1.63, 0.84, 1.82, 1.56, 7.18, repro,
2011-03-04,0.38, -0.10, 3.16, 1.82, 1.56, 7.16, repro,
2011-03-05,0.69, -0.27, -4.36, 1.82, 1.56, 7.19, repro,
2011-03-06,1.12, -0.75, -1.34, 1.82, 1.56, 7.18, repro,
2011-03-07,-2.72, -1.60, -5.47, 1.83, 1.57, 7.19, repro,
2011-03-08,0.87, 0.06, 2.19, 1.82, 1.56, 7.16, repro,
2011-03-09,1.77, -0.72, 0.73, 1.81, 1.55, 7.12, repro,
2011-03-10,2.07, -1.20, 0.80, 1.82, 1.56, 7.18, repro,
2011-03-11,1.51, -1.00, 2.23, 1.81, 1.57, 7.16, repro,
2011-03-12,1.65, -0.64, 3.63, 1.83, 1.56, 7.18, repro,
2011-03-13,1.09, -1.86, 0.05, 1.85, 1.58, 7.22, repro,
2011-03-14,1.49, -1.20, -1.56, 1.89, 1.63, 7.36, repro,
2011-03-15,2.73, -1.72, -3.56, 2.07, 1.73, 7.98, repro,
2011-03-16,1.86, -1.68, 5.43, 1.93, 1.68, 7.48, repro,
2011-03-17,1.82, 0.33, 1.55, 1.96, 1.69, 7.60, repro,
2011-03-18,0.81, 0.03, -3.56, 2.14, 1.75, 8.09, repro,
2011-03-19,0.99, -0.19, -1.38, 1.97, 1.70, 7.60, repro,
2011-03-20,0.68, -1.66, 0.15, 1.87, 1.59, 7.30, repro,
2011-03-21,-0.90, -2.96, 2.00, 1.96, 1.64, 7.54, repro,
2011-03-22,3.22, 0.06, 2.87, 1.95, 1.66, 7.57, repro,
2011-03-23,0.77, -0.96, 4.03, 1.92, 1.66, 7.51, repro,
2011-03-24,1.56, 0.15, 2.65, 1.95, 1.63, 7.54, repro,
2011-03-25,0.88, -1.32, 7.43, 1.94, 1.65, 7.51, repro,
2011-03-26,-0.22, -1.06, 3.01, 2.08, 1.69, 8.02, repro,
2011-03-27,0.04, -0.99, 2.18, 1.87, 1.61, 7.34, repro,
2011-03-28,0.49, -1.02, 1.21, 1.89, 1.64, 7.43, repro,
2011-03-29,1.62, -0.53, 0.56, 1.85, 1.58, 7.24, repro,
2011-03-30,2.05, -1.25, 2.35, 1.86, 1.59, 7.27, repro,
2011-03-31,-1.29, -0.48, -2.38, 2.05, 1.67, 7.97, repro,
2011-04-01,1.39, -0.23, 4.01, 1.91, 1.62, 7.45, repro,
2011-04-02,0.68, -1.37, 2.88, 1.94, 1.66, 7.56, repro,
2011-04-03,1.52, -1.29, 0.44, 1.91, 1.61, 7.48, repro,
2011-04-04,1.92, -0.64, -0.86, 1.89, 1.62, 7.46, repro,
2011-04-05,1.83, -0.87, 0.95, 1.92, 1.70, 7.62, repro,
2011-04-06,1.69, -0.74, 4.17, 1.87, 1.62, 7.44, repro,
2011-04-07,0.64, 0.10, 6.28, 1.91, 1.60, 7.67, repro,
2011-04-08,-0.78, 0.23, 0.93, 1.91, 1.61, 7.48, repro,
2011-04-09,2.51, -0.94, 7.31, 1.89, 1.59, 7.34, repro,
2011-04-10,2.53, -1.93, 3.91, 1.85, 1.59, 7.27, repro,
2011-04-11,1.78, -1.00, -0.19, 1.93, 1.65, 7.52, repro,
2011-04-12,1.45, -1.50, 1.56, 1.89, 1.65, 7.53, repro,
2011-04-13,1.54, -1.57, 5.12, 1.83, 1.58, 7.25, repro,
2011-04-14,0.56, -0.18, -0.60, 1.86, 1.60, 7.32, repro,
2011-04-15,0.29, -0.65, -2.47, 1.83, 1.56, 7.21, repro,
2011-04-16,0.23, -1.07, 2.98, 1.81, 1.54, 7.08, repro,
2011-04-17,0.56, -0.31, 6.97, 1.82, 1.55, 7.13, repro,
2011-04-18,0.95, -1.40, 5.20, 1.83, 1.57, 7.23, repro,
2011-04-19,0.54, -0.69, 9.49, 1.87, 1.60, 7.33, repro,
2011-04-20,0.57, -1.69, 3.62, 1.83, 1.56, 7.21, repro,
2011-04-21,0.54, -0.43, 9.69, 1.87, 1.56, 7.41, repro,
2011-04-22,1.26, -0.92, 7.74, 1.82, 1.55, 7.14, repro,
2011-04-23,1.05, -1.60, 10.69, 1.82, 1.57, 7.22, repro,
2011-04-24,-0.20, 0.28, 7.72, 1.85, 1.61, 7.37, repro,
2011-04-25,-0.30, 0.50, 3.94, 1.84, 1.56, 7.24, repro,
2011-04-26,-0.89, 0.84, 3.49, 1.81, 1.54, 7.12, repro,
2011-04-27,0.82, 0.30, 8.73, 1.81, 1.53, 7.09, repro,
2011-04-28,2.00, 0.42, 3.35, 1.82, 1.54, 7.16, repro,
2011-04-29,2.53, -2.09, 4.05, 1.82, 1.55, 7.19, repro,
2011-04-30,1.48, -0.07, 7.99, 1.85, 1.59, 7.32, repro,
2011-05-01,0.47, 0.09, 5.91, 1.82, 1.55, 7.17, repro,
2011-05-02,1.57, -0.35, 5.34, 1.81, 1.53, 7.06, repro,
2011-05-03,0.95, -0.41, 2.95, 1.84, 1.58, 7.26, repro,
2011-05-04,1.48, -0.16, 4.12, 1.84, 1.59, 7.31, repro,
2011-05-05,1.38, -0.52, 4.49, 1.88, 1.59, 7.36, repro,
2011-05-06,0.72, -0.36, 8.75, 1.86, 1.58, 7.30, repro,
2011-05-07,0.83, -1.06, 12.96, 1.83, 1.58, 7.23, repro,
2011-05-08,1.81, 0.94, 11.33, 1.83, 1.57, 7.23, repro,
2011-05-09,2.00, 1.62, 10.86, 1.84, 1.59, 7.31, repro,
2011-05-10,2.15, -1.55, 9.24, 1.84, 1.60, 7.34, repro,
2011-05-11,1.31, -0.47, 8.89, 1.82, 1.56, 7.16, repro,
2011-05-12,1.46, 0.45, 6.51, 1.83, 1.58, 7.24, repro,
2011-05-13,1.16, 0.68, 3.95, 1.81, 1.54, 7.09, repro,
2011-05-14,0.56, -0.53, 7.23, 1.86, 1.63, 7.44, repro,
2011-05-15,-0.86, -3.00, 7.56, 1.85, 1.59, 7.26, repro,
2011-05-16,0.82, 0.83, 11.97, 1.86, 1.64, 7.46, repro,
2011-05-17,1.30, -0.60, 6.55, 1.84, 1.61, 7.32, repro,
2011-05-18,2.39, -0.35, 11.11, 1.85, 1.60, 7.32, repro,
2011-05-19,1.24, -0.28, 13.75, 1.90, 1.69, 7.53, repro,
2011-05-20,0.16, -0.02, 4.29, 1.87, 1.63, 7.43, repro,
2011-05-21,0.45, 0.93, 6.15, 1.91, 1.71, 7.57, repro,
2011-05-22,-0.20, 0.71, 7.57, 1.86, 1.65, 7.51, repro,
2011-05-23,1.44, -2.67, 4.07, 1.87, 1.64, 7.47, repro,
2011-05-24,0.32, -1.72, 6.34, 1.92, 1.74, 7.78, repro,
2011-05-25,-0.01, 0.15, 6.35, 1.92, 1.69, 7.57, repro,
2011-05-26,0.65, 0.92, 0.08, 1.86, 1.63, 7.43, repro,
2011-05-27,0.35, -1.11, 8.98, 1.85, 1.65, 7.49, repro,
2011-05-28,-0.02, 0.39, 4.72, 1.96, 1.81, 8.02, repro,
2011-05-29,0.60, -1.47, 11.67, 1.91, 1.68, 7.50, repro,
2011-05-30,1.69, -0.10, 9.37, 1.91, 1.68, 7.49, repro,
2011-05-31,0.29, -0.71, 5.90, 1.84, 1.58, 7.23, repro,
2011-06-01,1.21, -1.74, 3.43, 1.86, 1.64, 7.48, repro,
2011-06-02,0.60, 0.50, 10.20, 1.86, 1.65, 7.53, repro,
2011-06-03,0.59, 0.53, 12.03, 1.84, 1.57, 7.22, repro,
2011-06-04,0.88, -1.03, 4.82, 1.85, 1.57, 7.20, repro,
2011-06-05,0.60, -0.89, 4.25, 1.85, 1.57, 7.22, repro,
2011-06-06,2.58, -0.09, 6.45, 1.84, 1.59, 7.29, repro,
2011-06-07,2.06, -0.90, 10.14, 1.83, 1.60, 7.31, repro,
2011-06-08,1.32, -1.58, 8.67, 1.84, 1.59, 7.31, repro,
2011-06-09,2.78, -0.61, 9.06, 1.84, 1.58, 7.23, repro,
2011-06-10,1.87, -0.60, 4.87, 1.84, 1.57, 7.23, repro,
2011-06-11,1.34, -1.51, 12.75, 1.84, 1.58, 7.23, repro,
2011-06-12,2.31, -1.68, 4.69, 1.84, 1.60, 7.31, repro,
2011-06-13,2.14, 0.03, 14.36, 1.84, 1.60, 7.30, repro,
2011-06-14,1.95, -0.94, 8.68, 1.84, 1.58, 7.26, repro,
2011-06-15,1.74, -0.44, 8.30, 1.85, 1.58, 7.27, repro,
2011-06-16,1.21, 0.16, 13.80, 1.84, 1.57, 7.24, repro,
2011-06-17,1.45, -0.93, 2.38, 1.84, 1.59, 7.31, repro,
2011-06-18,3.32, -1.41, 6.50, 1.84, 1.60, 7.31, repro,
2011-06-19,1.54, -2.67, 8.97, 1.85, 1.60, 7.33, repro,
2011-06-20,1.59, -1.01, 9.26, 1.85, 1.58, 7.26, repro,
2011-06-21,1.31, -0.86, 14.10, 1.85, 1.58, 7.24, repro,
2011-06-22,0.99, -0.62, 15.22, 1.84, 1.58, 7.24, repro,
2011-06-23,1.84, -0.72, 9.26, 1.85, 1.59, 7.27, repro,
2011-06-24,0.73, -1.15, 11.45, 1.84, 1.61, 7.30, repro,
2011-06-25,1.57, -1.62, 11.11, 1.85, 1.60, 7.31, repro,
2011-06-26,1.30, -0.71, 15.01, 1.84, 1.58, 7.23, repro,
2011-06-27,2.72, -0.69, 8.28, 1.84, 1.57, 7.22, repro,
2011-06-28,1.67, -0.62, 13.99, 1.86, 1.60, 7.36, repro,
2011-06-29,2.26, -2.79, 13.28, 1.86, 1.60, 7.34, repro,
2011-06-30,2.07, -1.19, 7.45, 1.85, 1.59, 7.28, repro,
2011-07-01,2.97, -1.52, 9.56, 1.84, 1.58, 7.22, repro,
2011-07-02,1.87, -0.62, 13.77, 1.84, 1.57, 7.22, repro,
2011-07-03,2.52, -2.45, 18.19, 1.88, 1.63, 7.40, repro,
2011-07-04,2.21, -1.18, 8.47, 1.91, 1.60, 7.60, repro,
2011-07-05,1.16, -0.67, 3.85, 1.88, 1.60, 7.48, repro,
2011-07-06,1.34, 0.91, 6.58, 1.88, 1.60, 7.48, repro,
2011-07-07,1.29, -0.33, 16.80, 1.91, 1.64, 7.58, repro,
2011-07-08,3.97, -0.12, 13.78, 1.91, 1.64, 7.62, repro,
2011-07-09,2.66, 0.73, 17.15, 1.91, 1.61, 7.64, repro,
2011-07-10,3.82, -1.50, 19.66, 1.94, 1.67, 7.80, repro,
2011-07-11,3.68, -1.20, 10.29, 1.88, 1.62, 7.57, repro,
2011-07-12,1.85, -1.08, 8.02, 1.97, 1.75, 7.88, repro,
2011-07-13,2.35, -1.49, 13.05, 1.89, 1.59, 7.47, repro,
2011-07-14,2.88, -1.29, 6.16, 1.89, 1.60, 7.51, repro,
2011-07-15,3.55, -0.85, 12.30, 1.90, 1.60, 7.53, repro,
2011-07-16,1.28, -1.82, 11.91, 1.88, 1.60, 7.45, repro,
2011-07-17,1.64, -0.92, 6.37, 1.88, 1.60, 7.46, repro,
2011-07-18,1.48, 0.42, 10.69, 1.89, 1.59, 7.45, repro,
2011-07-19,2.59, -0.50, 11.90, 1.89, 1.59, 7.44, repro,
2011-07-20,3.29, -0.76, 9.15, 1.92, 1.67, 7.61, repro,
2011-07-21,3.24, 1.42, 8.88, 1.89, 1.60, 7.50, repro,
2011-07-22,0.57, 0.63, 17.43, 1.89, 1.60, 7.49, repro,
2011-07-23,1.83, -1.06, 6.85, 1.89, 1.60, 7.48, repro,
2011-07-24,1.86, 0.27, 17.64, 1.88, 1.58, 7.39, repro,
2011-07-25,0.70, -0.23, 12.06, 1.90, 1.60, 7.48, repro,
2011-07-26,2.89, -0.30, 17.64, 1.90, 1.60, 7.50, repro,
2011-07-27,1.64, -0.39, 14.60, 1.90, 1.60, 7.49, repro,
2011-07-28,2.03, -1.71, 16.28, 1.92, 1.69, 7.78, repro,
2011-07-29,2.93, -0.71, 11.28, 1.89, 1.62, 7.56, repro,
2011-07-30,2.77, -2.05, 11.75, 1.88, 1.60, 7.46, repro,
2011-07-31,1.42, -0.85, 13.01, 1.89, 1.60, 7.49, repro,
2011-08-01,2.72, 0.49, 6.19, 1.89, 1.60, 7.51, repro,
2011-08-02,2.07, -0.75, 16.33, 1.91, 1.68, 7.76, repro,
2011-08-03,4.34, -0.94, 16.76, 2.02, 1.79, 8.23, repro,
2011-08-04,3.56, -0.35, 8.94, 1.89, 1.61, 7.53, repro,
2011-08-05,1.38, -1.10, 18.12, 1.91, 1.67, 7.69, repro,
2011-08-06,1.55, 1.07, 20.17, 1.92, 1.65, 7.72, repro,
2011-08-07,0.99, -0.43, 17.60, 1.93, 1.67, 7.76, repro,
2011-08-08,4.18, 0.38, 17.65, 1.90, 1.67, 7.70, repro,
2011-08-09,2.59, -1.06, 28.15, 1.91, 1.66, 7.69, repro,
2011-08-10,0.58, -1.08, 7.63, 1.92, 1.69, 7.73, repro,
2011-08-11,2.19, 0.17, 12.02, 1.99, 1.66, 7.90, repro,
2011-08-12,0.56, -0.50, 15.96, 2.03, 1.72, 8.16, repro,
2011-08-13,2.16, -0.77, 9.97, 1.92, 1.65, 7.63, repro,
2011-08-14,2.65, -0.10, 9.29, 1.93, 1.65, 7.68, repro,
2011-08-15,1.34, -0.92, 21.45, 1.96, 1.76, 7.97, repro,
2011-08-16,1.82, -1.34, 17.01, 1.91, 1.65, 7.61, repro,
2011-08-17,2.94, -0.86, 11.02, 1.91, 1.64, 7.60, repro,
2011-08-18,1.86, -0.48, 12.42, 1.90, 1.63, 7.58, repro,
2011-08-19,2.76, 0.48, 14.45, 1.93, 1.69, 7.79, repro,
2011-08-20,1.85, -2.50, 14.29, 1.90, 1.64, 7.66, repro,
2011-08-21,2.16, -1.03, 10.13, 1.91, 1.65, 7.67, repro,
2011-08-22,3.59, -0.30, 13.29, 1.94, 1.68, 7.66, repro,
2011-08-23,1.71, -1.07, 16.05, 1.97, 1.75, 7.95, repro,
2011-08-24,2.53, -0.56, 14.37, 1.88, 1.63, 7.53, repro,
2011-08-25,2.57, -0.18, 17.30, 1.90, 1.64, 7.58, repro,
2011-08-26,2.03, -3.35, 18.47, 1.97, 1.70, 7.82, repro,
2011-08-27,1.88, -0.47, 9.95, 1.91, 1.65, 7.60, repro,
2011-08-28,1.69, -1.04, 19.88, 2.12, 1.90, 8.49, repro,
2011-08-29,2.54, 0.42, 13.61, 1.91, 1.66, 7.61, repro,
2011-08-30,2.08, -2.14, 9.05, 1.99, 1.67, 7.95, repro,
2011-08-31,1.81, -1.37, 15.99, 1.97, 1.65, 7.90, repro,
2011-09-01,3.09, -0.53, 14.66, 1.97, 1.63, 7.91, repro,
2011-09-02,2.66, -1.78, 13.54, 2.00, 1.69, 8.03, repro,
2011-09-03,3.39, 0.26, 12.72, 1.96, 1.73, 7.87, repro,
2011-09-04,2.31, 0.16, 18.75, 2.01, 1.69, 7.87, repro,
2011-09-05,1.54, -1.13, 16.31, 1.91, 1.63, 7.65, repro,
2011-09-06,1.96, -1.37, 11.49, 1.90, 1.62, 7.55, repro,
2011-09-07,1.64, 1.60, 1.09, 1.93, 1.65, 7.63, repro,
2011-09-08,1.25, 0.96, 8.77, 1.91, 1.64, 7.58, repro,
2011-09-09,1.84, -2.66, 15.67, 2.03, 1.82, 8.06, repro,
2011-09-10,1.89, -0.95, 10.23, 2.05, 1.68, 8.27, repro,
2011-09-11,2.14, 0.18, 14.57, 1.91, 1.65, 7.62, repro,
2011-09-12,2.33, 0.06, 17.68, 1.93, 1.65, 7.67, repro,
2011-09-13,3.89, -1.54, 17.92, 2.44, 2.06, 9.60, repro,
2011-09-14,2.40, -0.79, 13.21, 2.06, 1.77, 8.16, repro,
2011-09-15,2.34, -1.13, 18.34, 1.89, 1.62, 7.50, repro,
2011-09-16,3.36, 0.64, 17.27, 1.94, 1.71, 7.73, repro,
2011-09-17,3.26, -0.89, 18.77, 1.89, 1.62, 7.53, repro,
2011-09-18,5.22, -1.07, 11.42, 1.94, 1.67, 7.66, repro,
2011-09-19,3.71, -1.55, 7.61, 1.95, 1.72, 7.78, repro,
2011-09-20,2.08, -0.41, 10.69, 1.93, 1.66, 7.59, repro,
2011-09-21,3.19, -0.99, 14.48, 1.92, 1.66, 7.57, repro,
2011-09-22,2.61, -1.67, 12.47, 1.91, 1.65, 7.60, repro,
2011-09-23,1.77, -1.35, 14.72, 1.97, 1.72, 7.80, repro,
2011-09-24,1.78, -0.57, 23.13, 1.89, 1.63, 7.58, repro,
2011-09-25,1.07, 0.13, 17.47, 2.01, 1.81, 8.16, repro,
2011-09-26,3.39, -0.17, 14.92, 1.97, 1.69, 7.77, repro,
2011-09-27,2.58, -1.24, 16.76, 1.88, 1.60, 7.45, repro,
2011-09-28,1.41, -1.24, 11.73, 1.96, 1.70, 7.71, repro,
2011-09-29,2.40, -0.92, 11.40, 2.01, 1.80, 7.93, repro,
2011-09-30,2.71, -1.08, 9.26, 2.00, 1.77, 7.88, repro,
2011-10-01,2.19, -1.91, 11.03, 2.01, 1.75, 7.82, repro,
2011-10-02,1.48, -1.43, 12.25, 2.04, 1.73, 7.87, repro,
2011-10-03,2.07, -0.87, 8.51, 2.09, 1.79, 8.16, repro,
2011-10-04,2.12, -0.68, 9.16, 2.13, 1.93, 8.26, repro,
2011-10-05,2.25, -2.97, 16.41, 2.00, 1.79, 7.95, repro,
2011-10-06,-1.00, -1.08, 2.19, 1.94, 1.67, 7.63, repro,
2011-10-07,3.79, -1.66, 8.40, 1.94, 1.65, 7.56, repro,
2011-10-08,2.92, -1.53, 12.33, 1.97, 1.70, 7.69, repro,
2011-10-09,2.71, -1.73, 14.00, 1.95, 1.70, 7.68, repro,
2011-10-10,3.30, -1.64, 12.81, 1.93, 1.67, 7.66, repro,
2011-10-11,2.72, -1.28, 12.64, 1.96, 1.72, 7.70, repro,
2011-10-12,3.88, -1.10, 15.98, 1.97, 1.70, 7.73, repro,
2011-10-13,2.19, -0.62, 12.44, 1.96, 1.70, 7.69, repro,
2011-10-14,4.09, -0.56, 11.56, 1.92, 1.65, 7.57, repro,
2011-10-15,3.42, 1.02, 12.00, 1.93, 1.67, 7.61, repro,
2011-10-16,4.05, -0.23, 9.34, 1.92, 1.65, 7.56, repro,
2011-10-17,2.35, -0.47, 11.65, 1.93, 1.65, 7.61, repro,
2011-10-18,2.78, -0.10, 13.45, 1.92, 1.65, 7.55, repro,
2011-10-19,2.26, -2.44, 12.48, 1.98, 1.69, 7.71, repro,
2011-10-20,1.92, -0.94, 17.04, 1.93, 1.65, 7.61, repro,
2011-10-21,1.85, -0.98, 13.06, 1.93, 1.65, 7.61, repro,
2011-10-22,2.70, -2.38, 6.59, 1.93, 1.65, 7.57, repro,
2011-10-23,1.95, -1.32, 9.32, 1.96, 1.69, 7.66, repro,
2011-10-24,1.70, -1.53, 19.28, 1.92, 1.63, 7.49, repro,
2011-10-25,1.39, -1.31, 13.12, 1.89, 1.61, 7.45, repro,
2011-10-26,3.45, 0.15, 10.08, 1.96, 1.73, 7.74, repro,
2011-10-27,2.76, 0.17, 13.81, 1.93, 1.64, 7.56, repro,
2011-10-28,3.40, -0.82, 12.37, 1.93, 1.65, 7.60, repro,
2011-10-29,3.56, -0.33, 15.97, 1.92, 1.64, 7.53, repro,
2011-10-30,2.90, -0.79, 13.64, 1.92, 1.64, 7.51, repro,
2011-10-31,2.68, -0.73, 15.31, 1.93, 1.64, 7.55, repro,
2011-11-01,3.55, 0.22, 13.81, 1.91, 1.66, 7.64, repro,
2011-11-02,3.13, -0.72, 13.64, 1.92, 1.67, 7.67, repro,
2011-11-03,3.77, 0.37, 9.66, 1.95, 1.71, 7.80, repro,
2011-11-04,2.64, -1.41, 15.39, 1.92, 1.66, 7.64, repro,
2011-11-05,3.14, 2.87, 12.49, 1.90, 1.67, 7.62, repro,
2011-11-06,4.36, -1.22, 15.22, 1.90, 1.65, 7.56, repro,
2011-11-07,4.14, 0.21, 6.70, 1.89, 1.61, 7.41, repro,
2011-11-08,3.96, -0.19, 7.08, 1.91, 1.65, 7.59, repro,
2011-11-09,3.44, 1.06, 2.29, 1.90, 1.62, 7.50, repro,
2011-11-10,3.75, -1.60, 4.82, 1.95, 1.62, 7.56, repro,
2011-11-11,2.52, -1.60, 17.07, 1.89, 1.60, 7.39, repro,
2011-11-12,3.00, -1.08, 11.34, 1.90, 1.64, 7.58, repro,
2011-11-13,4.16, -1.57, 18.35, 1.90, 1.60, 7.44, repro,
2011-11-14,2.62, -0.14, 13.08, 1.91, 1.65, 7.63, repro,
2011-11-15,3.85, -0.35, 15.83, 1.90, 1.64, 7.60, repro,
2011-11-16,3.13, -0.57, 5.18, 1.88, 1.60, 7.43, repro,
2011-11-17,4.52, -0.33, 7.13, 1.89, 1.65, 7.59, repro,
2011-11-18,3.47, -1.22, 8.34, 1.93, 1.66, 7.62, repro,
2011-11-19,2.24, 0.84, 12.76, 2.16, 1.81, 8.50, repro,
2011-11-20,1.96, -0.54, 16.20, 1.93, 1.66, 7.56, repro,
2011-11-21,3.32, 0.80, 6.72, 1.91, 1.65, 7.55, repro,
2011-11-22,2.16, -0.88, 5.97, 1.90, 1.65, 7.52, repro,
2011-11-23,3.01, -2.14, 3.57, 1.96, 1.64, 7.72, repro,
2011-11-24,1.31, -1.44, 8.71, 1.92, 1.65, 7.57, repro,
2011-11-25,3.07, -0.74, 10.85, 1.92, 1.65, 7.57, repro,
2011-11-26,1.74, 0.33, 4.12, 1.91, 1.66, 7.57, repro,
2011-11-27,2.69, 0.26, 5.88, 1.88, 1.65, 7.53, repro,
2011-11-28,2.20, -1.42, 6.63, 1.94, 1.69, 7.72, repro,
2011-11-29,2.61, -1.95, 9.42, 1.93, 1.72, 7.82, repro,
2011-11-30,2.05, -1.73, 11.55, 2.04, 1.70, 7.92, repro,
2011-12-01,0.84, -0.80, 1.92, 1.90, 1.61, 7.48, repro,
2011-12-02,1.59, -1.12, 7.61, 1.95, 1.69, 7.59, repro,
2011-12-03,1.25, -0.45, 6.05, 2.00, 1.70, 7.79, repro,
2011-12-04,2.50, -0.55, 1.68, 1.90, 1.64, 7.53, repro,
2011-12-05,3.55, -1.14, 2.11, 1.90, 1.64, 7.52, repro,
2011-12-06,3.48, -1.32, 2.19, 1.93, 1.65, 7.60, repro,
2011-12-07,2.66, -1.27, 6.30, 1.91, 1.65, 7.57, repro,
2011-12-08,2.36, -0.69, 6.50, 1.89, 1.63, 7.45, repro,
2011-12-09,2.50, -0.84, 4.39, 1.93, 1.67, 7.59, repro,
2011-12-10,1.71, -1.31, 7.50, 1.95, 1.66, 7.63, repro,
2011-12-11,1.99, -1.81, 9.08, 1.91, 1.64, 7.56, repro,
2011-12-12,1.71, -2.17, 16.54, 1.92, 1.64, 7.56, repro,
2011-12-13,0.87, -1.32, 7.26, 1.91, 1.63, 7.51, repro,
2011-12-14,1.57, -1.28, 8.23, 1.90, 1.63, 7.48, repro,
2011-12-15,2.15, -0.60, 10.48, 1.95, 1.68, 7.63, repro,
2011-12-16,-1.14, 1.66, 0.33, 1.95, 1.66, 7.60, repro,
2011-12-17,1.91, -0.94, 7.48, 1.85, 1.57, 7.34, repro,
2011-12-18,1.23, -1.27, 8.87, 1.86, 1.57, 7.33, repro,
2011-12-19,2.17, -1.49, 9.71, 1.88, 1.59, 7.36, repro,
2011-12-20,1.26, -0.29, 9.10, 1.99, 1.68, 7.82, repro,
2011-12-21,1.63, -0.65, 10.45, 1.84, 1.58, 7.33, repro,
2011-12-22,1.75, -1.05, 6.25, 1.88, 1.62, 7.47, repro,
2011-12-23,1.28, 0.25, 2.00, 1.88, 1.62, 7.43, repro,
2011-12-24,3.42, -1.40, 4.84, 2.02, 1.73, 8.05, repro,
2011-12-25,2.75, -1.39, 4.45, 1.88, 1.62, 7.45, repro,
2011-12-26,2.75, -0.79, 9.86, 1.88, 1.63, 7.49, repro,
2011-12-27,2.94, -1.11, 10.35, 1.88, 1.63, 7.47, repro,